Find Yaogan Weixing 10

NORAD ID: 36834 Int'l Des: 2010-038 Owner: ZZB Country: CN Constellation: yaogan operational
LEOCIRCULARRETROGRADESSO

Live Position

Loading 3D Globe...

About Yaogan Weixing 10

Description loading...

Upcoming Passes

Passes for default location (London). Set your location on the main map for personalized predictions.

Altitude History

Loading altitude history...

Two-Line Element Set

1 36834U 10038A 26107.32699485 .00001432 00000-0 17356-3 0 9993
2 36834 97.9032 131.2106 0001516 85.5402 44.5857 14.85163015848172
Epoch: Apr 17, 2026 • Age: 12 hours

Current Status

Altitude 632.4 km
Velocity 7.54 km/s
Sub-Earth Point -47.74°S, 162.91°E
Launch Date Aug 9, 2010
Age 15.6 years
Type military

Technical Details

Classification Payload
Mass 1040.00 kg
Dry Mass 1040.00 kg
Total Mass 1040.00 kg
Length 1.50 m
Diameter 1.50 m
Span 5.00 m
Shape Box + 2 Pan
Manufacturer SAST
Bus Type JB-5
Phase Status In Orbit
Owner/State ZZB/CN

Most Searched